Location: Berg
(48.4333°N, 13.9167°E)
Time: 08:33:07
(UTC+00:00)

Cosmos 1025 Rocket - Pass Details

Date: 18 September 2020
Orbit: 595 x 617 km, 82.5° (Epoch: 24 October)

Event Time Altitude Azimuth Distance (km) Brightness Sun altitude
Rises 18:45:37 0° 349° (N) 2,885 7.0 -16.3°
Reaches altitude 10° 18:47:51 10° 349° (NNW) 1,979 6.1 -16.6°
Maximum altitude 18:52:14 81° 262° (W) 628 3.1 -17.3°
Enters shadow 18:56:07 13° 176° (S) 1,779 5.1 -17.9°
